GAOFEN-1 04

Last updated on Mon Sep 21 2026 00:02:46 GMT+0000 (Coordinated Universal Time)

1 43262U 18031D 26263.60569572 .00000564 00000+0 88444-4 0 9995 2 43262 98.0433 325.8664 0002500 96.3070 263.8425 14.76447949456765
UTC large
Height (km)
Speed (km/s)
/
Latitude / Longitude
Inclination (degrees)
Orbital Period (minutes)
Azimuth
Elevation
Range (km)
Doppler Factor

Next 0 passes for location: London (51.5072 / 0.1276)

No passes found over London.
GAOFEN-1 04